Station Historical Data
Daily Summary for December 10, 2017 Units:  English    Metric   Both
« Previous Day
Next Day »
Daily Weekly Monthly Yearly Custom
  High: Low: Average:
Temperature: 29.7 °F 27.0 °F 28.2 °F
Dew Point: 24.3 °F 17.5 °F 22.1 °F
Humidity: 87% 64% 78%
Wind Speed: 12.0mph 0.0mph 5.1mph
Wind Gust: 21.0mph - -
Wind- - West
Pressure: 29.92 in 29.79 in -
Precipitation: 0.00 in    
Historical Graphs
 
 
Tabular Data for December 10, 2017
Time Temperature Dew Point Pressure Wind Wind Speed Wind Gust Humidity Rainfall Rate (Hourly)
00:00 29.2 °F 23.5 °F 29.79 in West 3.0 mph 6.0 mph 79% 0.00 in
00:05 29.2 °F 23.8 °F 29.79 in West 2.0 mph 6.0 mph 80% 0.00 in
00:10 29.2 °F 23.8 °F 29.80 in West 2.0 mph 6.0 mph 80% 0.00 in
00:15 29.1 °F 23.7 °F 29.79 in West 3.0 mph 5.0 mph 80% 0.00 in
00:25 29.1 °F 23.7 °F 29.79 in West 1.0 mph 5.0 mph 80% 0.00 in
00:30 29.1 °F 23.7 °F 29.79 in West 2.0 mph 6.0 mph 80% 0.00 in
00:35 29.1 °F 23.7 °F 29.79 in West 1.0 mph 5.0 mph 80% 0.00 in
00:40 29.1 °F 23.7 °F 29.79 in Calm   5.0 mph 80% 0.00 in
00:45 29.1 °F 23.7 °F 29.79 in WSW 2.0 mph 4.0 mph 80% 0.00 in
00:50 29.1 °F 23.7 °F 29.79 in Calm   4.0 mph 80% 0.00 in
00:55 29.0 °F 23.9 °F 29.79 in West 3.0 mph 4.0 mph 81% 0.00 in
01:05 29.1 °F 24.0 °F 29.79 in West 1.0 mph 4.0 mph 81% 0.00 in
01:10 29.0 °F 23.9 °F 29.79 in West 2.0 mph 4.0 mph 81% 0.00 in
01:20 29.0 °F 23.9 °F 29.80 in WNW 1.0 mph 4.0 mph 81% 0.00 in
01:25 29.0 °F 23.9 °F 29.80 in West 1.0 mph 4.0 mph 81% 0.00 in
01:30 29.1 °F 24.0 °F 29.80 in Calm   5.0 mph 81% 0.00 in
01:35 29.0 °F 23.9 °F 29.79 in West 1.0 mph 5.0 mph 81% 0.00 in
01:40 29.1 °F 24.0 °F 29.79 in West 1.0 mph 4.0 mph 81% 0.00 in
01:50 29.1 °F 24.3 °F 29.80 in Calm   3.0 mph 82% 0.00 in
02:00 28.8 °F 24.0 °F 29.80 in West 4.0 mph 6.0 mph 82% 0.00 in
02:05 28.7 °F 23.9 °F 29.80 in WSW 4.0 mph 5.0 mph 82% 0.00 in
02:10 28.6 °F 23.8 °F 29.80 in West 3.0 mph 6.0 mph 82% 0.00 in
02:15 28.6 °F 23.8 °F 29.80 in West 3.0 mph 6.0 mph 82% 0.00 in
02:20 28.5 °F 23.7 °F 29.80 in WNW 5.0 mph 8.0 mph 82% 0.00 in
02:30 28.5 °F 23.7 °F 29.80 in WNW 3.0 mph 8.0 mph 82% 0.00 in
02:40 28.6 °F 23.5 °F 29.81 in West 4.0 mph 7.0 mph 81% 0.00 in
02:50 28.6 °F 23.5 °F 29.81 in West 4.0 mph 8.0 mph 81% 0.00 in
02:55 28.6 °F 23.8 °F 29.80 in West 4.0 mph 8.0 mph 82% 0.00 in
03:05 28.7 °F 23.6 °F 29.81 in West 10.0 mph 10.0 mph 81% 0.00 in
03:15 28.6 °F 23.5 °F 29.81 in West 5.0 mph 10.0 mph 81% 0.00 in
03:20 28.5 °F 23.4 °F 29.81 in West 4.0 mph 9.0 mph 81% 0.00 in
03:25 28.5 °F 23.4 °F 29.81 in West 4.0 mph 8.0 mph 81% 0.00 in
03:35 28.5 °F 23.7 °F 29.81 in West 4.0 mph 7.0 mph 82% 0.00 in
03:40 28.5 °F 23.7 °F 29.81 in WNW 5.0 mph 9.0 mph 82% 0.00 in
03:45 28.5 °F 23.7 °F 29.81 in NW 8.0 mph 11.0 mph 82% 0.00 in
03:50 28.4 °F 23.6 °F 29.81 in West 5.0 mph 11.0 mph 82% 0.00 in
03:55 28.4 °F 23.6 °F 29.81 in West 4.0 mph 11.0 mph 82% 0.00 in
04:00 28.3 °F 23.5 °F 29.81 in WNW 4.0 mph 9.0 mph 82% 0.00 in
04:05 28.3 °F 23.5 °F 29.81 in WNW 4.0 mph 8.0 mph 82% 0.00 in
04:10 28.3 °F 23.5 °F 29.81 in WNW 4.0 mph 9.0 mph 82% 0.00 in
04:15 28.4 °F 23.6 °F 29.81 in WNW 5.0 mph 6.0 mph 82% 0.00 in
04:20 28.4 °F 23.9 °F 29.81 in West 5.0 mph 10.0 mph 83% 0.00 in
04:25 28.4 °F 23.9 °F 29.81 in WNW 5.0 mph 10.0 mph 83% 0.00 in
04:35 28.4 °F 23.9 °F 29.82 in NW 1.0 mph 7.0 mph 83% 0.00 in
04:40 28.4 °F 23.9 °F 29.82 in WNW 2.0 mph 8.0 mph 83% 0.00 in
04:45 28.4 °F 24.2 °F 29.82 in WNW 4.0 mph 6.0 mph 84% 0.00 in
04:50 28.4 °F 23.9 °F 29.82 in NW 4.0 mph 10.0 mph 83% 0.00 in
05:00 28.0 °F 23.8 °F 29.83 in WNW 4.0 mph 8.0 mph 84% 0.00 in
05:05 28.0 °F 24.1 °F 29.83 in WNW 4.0 mph 9.0 mph 85% 0.00 in
05:15 27.8 °F 23.9 °F 29.83 in West 5.0 mph 7.0 mph 85% 0.00 in
05:20 27.8 °F 23.9 °F 29.83 in NW 3.0 mph 8.0 mph 85% 0.00 in
05:25 27.8 °F 23.9 °F 29.83 in West 6.0 mph 7.0 mph 85% 0.00 in
05:30 27.9 °F 24.0 °F 29.83 in West 4.0 mph 7.0 mph 85% 0.00 in
05:35 27.9 °F 24.0 °F 29.84 in West 4.0 mph 7.0 mph 85% 0.00 in
05:40 27.9 °F 24.0 °F 29.84 in WNW 5.0 mph 7.0 mph 85% 0.00 in
05:45 27.9 °F 24.0 °F 29.84 in West 3.0 mph 8.0 mph 85% 0.00 in
05:50 27.8 °F 23.9 °F 29.85 in West 5.0 mph 7.0 mph 85% 0.00 in
05:55 28.0 °F 23.8 °F 29.85 in West 3.0 mph 11.0 mph 84% 0.00 in
06:05 28.0 °F 23.8 °F 29.85 in West 4.0 mph 10.0 mph 84% 0.00 in
06:10 27.9 °F 23.4 °F 29.85 in West 4.0 mph 8.0 mph 83% 0.00 in
06:15 27.8 °F 23.3 °F 29.85 in West 4.0 mph 8.0 mph 83% 0.00 in
06:20 27.7 °F 22.9 °F 29.84 in West 4.0 mph 7.0 mph 82% 0.00 in
06:25 27.6 °F 22.8 °F 29.85 in West 6.0 mph 7.0 mph 82% 0.00 in
06:30 27.6 °F 22.5 °F 29.86 in WNW 7.0 mph 10.0 mph 81% 0.00 in
06:40 27.6 °F 22.2 °F 29.86 in West 5.0 mph 10.0 mph 80% 0.00 in
06:45 27.6 °F 22.2 °F 29.86 in West 6.0 mph 10.0 mph 80% 0.00 in
06:50 27.4 °F 22.0 °F 29.86 in West 5.0 mph 11.0 mph 80% 0.00 in
06:55 27.3 °F 21.9 °F 29.87 in West 5.0 mph 9.0 mph 80% 0.00 in
07:00 27.2 °F 21.5 °F 29.87 in WSW 2.0 mph 9.0 mph 79% 0.00 in
07:10 27.2 °F 21.5 °F 29.87 in West 5.0 mph 9.0 mph 79% 0.00 in
07:20 27.2 °F 21.5 °F 29.88 in West 5.0 mph 10.0 mph 79% 0.00 in
07:30 27.2 °F 21.5 °F 29.88 in West 5.0 mph 10.0 mph 79% 0.00 in
07:35 27.2 °F 21.5 °F 29.89 in West 6.0 mph 13.0 mph 79% 0.00 in
07:40 27.1 °F 21.2 °F 29.89 in West 7.0 mph 15.0 mph 78% 0.00 in
07:45 27.1 °F 21.2 °F 29.89 in West 4.0 mph 13.0 mph 78% 0.00 in
07:50 27.0 °F 21.1 °F 29.89 in WSW 6.0 mph 18.0 mph 78% 0.00 in
07:55 27.0 °F 20.7 °F 29.89 in NW 6.0 mph 15.0 mph 77% 0.00 in
08:00 27.0 °F 20.7 °F 29.89 in West 9.0 mph 10.0 mph 77% 0.00 in
08:05 27.1 °F 20.5 °F 29.89 in West 6.0 mph 11.0 mph 76% 0.00 in
08:10 27.2 °F 20.6 °F 29.90 in West 3.0 mph 11.0 mph 76% 0.00 in
08:15 27.3 °F 20.7 °F 29.90 in West 6.0 mph 12.0 mph 76% 0.00 in
08:20 27.4 °F 21.1 °F 29.90 in West 5.0 mph 12.0 mph 77% 0.00 in
08:25 27.4 °F 20.8 °F 29.90 in West 6.0 mph 17.0 mph 76% 0.00 in
08:30 27.4 °F 20.5 °F 29.90 in West 8.0 mph 17.0 mph 75% 0.00 in
08:35 27.4 °F 19.9 °F 29.90 in West 9.0 mph 19.0 mph 73% 0.00 in
08:50 27.4 °F 18.9 °F 29.90 in West 8.0 mph 16.0 mph 70% 0.00 in
08:55 27.3 °F 18.5 °F 29.90 in WSW 8.0 mph 18.0 mph 69% 0.00 in
09:00 27.4 °F 18.6 °F 29.91 in WNW 11.0 mph 17.0 mph 69% 0.00 in
09:05 27.4 °F 18.6 °F 29.91 in West 7.0 mph 14.0 mph 69% 0.00 in
09:15 27.6 °F 18.4 °F 29.91 in WNW 7.0 mph 14.0 mph 68% 0.00 in
09:25 27.7 °F 18.2 °F 29.91 in West 8.0 mph 15.0 mph 67% 0.00 in
09:30 27.8 °F 18.3 °F 29.91 in West 8.0 mph 21.0 mph 67% 0.00 in
09:35 27.9 °F 18.0 °F 29.91 in West 9.0 mph 21.0 mph 66% 0.00 in
09:40 28.0 °F 18.1 °F 29.91 in West 8.0 mph 19.0 mph 66% 0.00 in
09:50 28.1 °F 17.5 °F 29.91 in West 10.0 mph 18.0 mph 64% 0.00 in
09:55 28.1 °F 17.8 °F 29.91 in West 9.0 mph 18.0 mph 65% 0.00 in
10:00 28.3 °F 18.0 °F 29.91 in SW 10.0 mph 17.0 mph 65% 0.00 in
10:05 28.4 °F 17.8 °F 29.91 in West 4.0 mph 18.0 mph 64% 0.00 in
10:15 28.5 °F 18.2 °F 29.91 in SW 6.0 mph 14.0 mph 65% 0.00 in
10:20 28.5 °F 18.2 °F 29.91 in WNW 4.0 mph 17.0 mph 65% 0.00 in
10:25 28.5 °F 18.2 °F 29.91 in WNW 7.0 mph 15.0 mph 65% 0.00 in
10:30 28.6 °F 18.3 °F 29.91 in West 7.0 mph 16.0 mph 65% 0.00 in
10:40 28.8 °F 18.9 °F 29.91 in West 7.0 mph 13.0 mph 66% 0.00 in
11:10 29.1 °F 18.8 °F 29.89 in West 9.0 mph 18.0 mph 65% 0.00 in
11:15 29.1 °F 18.8 °F 29.89 in West 3.0 mph 15.0 mph 65% 0.00 in
11:20 29.4 °F 19.4 °F 29.89 in West 5.0 mph 11.0 mph 66% 0.00 in
11:25 29.3 °F 19.3 °F 29.89 in West 7.0 mph 17.0 mph 66% 0.00 in
11:30 29.0 °F 19.4 °F 29.88 in WNW 9.0 mph 15.0 mph 67% 0.00 in
11:35 29.0 °F 19.8 °F 29.88 in West 8.0 mph 15.0 mph 68% 0.00 in
11:40 29.0 °F 19.8 °F 29.88 in West 7.0 mph 13.0 mph 68% 0.00 in
11:45 29.1 °F 20.2 °F 29.88 in West 7.0 mph 15.0 mph 69% 0.00 in
11:50 29.2 °F 20.3 °F 29.87 in West 6.0 mph 15.0 mph 69% 0.00 in
11:55 29.2 °F 20.3 °F 29.87 in West 7.0 mph 15.0 mph 69% 0.00 in
12:00 29.3 °F 20.4 °F 29.87 in WNW 6.0 mph 12.0 mph 69% 0.00 in
12:05 29.3 °F 20.0 °F 29.86 in WNW 10.0 mph 15.0 mph 68% 0.00 in
12:10 29.4 °F 20.1 °F 29.86 in West 8.0 mph 15.0 mph 68% 0.00 in
12:15 29.7 °F 20.4 °F 29.86 in West 12.0 mph 12.0 mph 68% 0.00 in
12:25 29.7 °F 20.8 °F 29.86 in West 9.0 mph 14.0 mph 69% 0.00 in
12:30 29.4 °F 20.5 °F 29.86 in WSW 7.0 mph 18.0 mph 69% 0.00 in
12:35 29.3 °F 20.7 °F 29.86 in West 8.0 mph 12.0 mph 70% 0.00 in
12:40 29.2 °F 21.0 °F 29.86 in West 9.0 mph 11.0 mph 71% 0.00 in
12:45 29.1 °F 21.2 °F 29.86 in West 6.0 mph 13.0 mph 72% 0.00 in
12:50 29.2 °F 21.6 °F 29.86 in West 7.0 mph 13.0 mph 73% 0.00 in
12:55 29.2 °F 21.6 °F 29.86 in West 6.0 mph 12.0 mph 73% 0.00 in
13:00 29.2 °F 21.6 °F 29.86 in West 6.0 mph 12.0 mph 73% 0.00 in
13:05 29.2 °F 21.6 °F 29.85 in SW 12.0 mph 14.0 mph 73% 0.00 in
13:10 29.2 °F 21.6 °F 29.85 in West 8.0 mph 13.0 mph 73% 0.00 in
13:15 29.2 °F 21.9 °F 29.85 in West 5.0 mph 8.0 mph 74% 0.00 in
13:25 29.1 °F 22.2 °F 29.85 in West 7.0 mph 15.0 mph 75% 0.00 in
13:30 29.1 °F 22.2 °F 29.85 in West 5.0 mph 13.0 mph 75% 0.00 in
13:35 29.0 °F 22.4 °F 29.85 in West 3.0 mph 15.0 mph 76% 0.00 in
13:40 28.9 °F 22.6 °F 29.85 in West 8.0 mph 11.0 mph 77% 0.00 in
13:45 28.8 °F 22.5 °F 29.85 in West 3.0 mph 11.0 mph 77% 0.00 in
13:50 28.8 °F 22.8 °F 29.85 in West 6.0 mph 16.0 mph 78% 0.00 in
14:00 28.5 °F 22.8 °F 29.85 in West 7.0 mph 14.0 mph 79% 0.00 in
14:05 28.4 °F 23.0 °F 29.85 in West 5.0 mph 11.0 mph 80% 0.00 in
14:10 28.3 °F 23.2 °F 29.85 in West 5.0 mph 9.0 mph 81% 0.00 in
14:20 28.0 °F 23.2 °F 29.85 in West 4.0 mph 9.0 mph 82% 0.00 in
14:25 27.9 °F 23.4 °F 29.86 in West 5.0 mph 10.0 mph 83% 0.00 in
14:30 27.9 °F 23.4 °F 29.85 in WSW 7.0 mph 9.0 mph 83% 0.00 in
14:35 27.8 °F 23.3 °F 29.85 in WSW 4.0 mph 11.0 mph 83% 0.00 in
14:45 27.7 °F 23.5 °F 29.86 in WSW 6.0 mph 11.0 mph 84% 0.00 in
14:50 27.7 °F 23.5 °F 29.85 in West 6.0 mph 9.0 mph 84% 0.00 in
14:55 27.7 °F 23.5 °F 29.86 in SW 7.0 mph 10.0 mph 84% 0.00 in
15:00 27.7 °F 23.5 °F 29.86 in WSW 5.0 mph 12.0 mph 84% 0.00 in
15:05 27.8 °F 23.9 °F 29.86 in WSW 5.0 mph 12.0 mph 85% 0.00 in
15:10 27.8 °F 23.9 °F 29.86 in WSW 5.0 mph 11.0 mph 85% 0.00 in
15:15 27.8 °F 23.9 °F 29.86 in West 5.0 mph 11.0 mph 85% 0.00 in
15:20 27.7 °F 24.1 °F 29.86 in West 5.0 mph 12.0 mph 86% 0.00 in
15:24 27.7 °F 24.1 °F 29.86 in West 7.0 mph 13.0 mph 86% 0.00 in
15:30 27.6 °F 24.0 °F 29.86 in West 6.0 mph 13.0 mph 86% 0.00 in
15:35 27.7 °F 24.1 °F 29.86 in WNW 8.0 mph 11.0 mph 86% 0.00 in
15:40 27.6 °F 24.0 °F 29.86 in West 4.0 mph 14.0 mph 86% 0.00 in
15:50 27.5 °F 24.1 °F 29.87 in NW 8.0 mph 15.0 mph 87% 0.00 in
15:55 27.4 °F 24.0 °F 29.87 in West 5.0 mph 11.0 mph 87% 0.00 in
16:05 27.4 °F 24.0 °F 29.87 in West 6.0 mph 12.0 mph 87% 0.00 in
16:10 27.4 °F 24.0 °F 29.87 in West 6.0 mph 12.0 mph 87% 0.00 in
16:15 27.4 °F 24.0 °F 29.88 in West 5.0 mph 10.0 mph 87% 0.00 in
16:20 27.4 °F 24.0 °F 29.88 in West 6.0 mph 13.0 mph 87% 0.00 in
16:25 27.4 °F 23.8 °F 29.88 in West 6.0 mph 13.0 mph 86% 0.00 in
16:30 27.6 °F 23.7 °F 29.88 in West 6.0 mph 19.0 mph 85% 0.00 in
16:35 27.7 °F 23.2 °F 29.88 in West 6.0 mph 13.0 mph 83% 0.00 in
16:45 28.1 °F 22.7 °F 29.88 in West 8.0 mph 17.0 mph 80% 0.00 in
16:50 28.3 °F 22.3 °F 29.88 in West 8.0 mph 17.0 mph 78% 0.00 in
16:55 28.2 °F 22.2 °F 29.88 in West 10.0 mph 13.0 mph 78% 0.00 in
17:00 28.2 °F 22.2 °F 29.88 in West 3.0 mph 14.0 mph 78% 0.00 in
17:05 28.0 °F 22.0 °F 29.88 in West 3.0 mph 13.0 mph 78% 0.00 in
17:10 28.0 °F 22.0 °F 29.88 in West 6.0 mph 13.0 mph 78% 0.00 in
17:15 27.8 °F 22.1 °F 29.88 in West 6.0 mph 13.0 mph 79% 0.00 in
17:20 27.7 °F 22.0 °F 29.89 in West 6.0 mph 15.0 mph 79% 0.00 in
17:34 27.3 °F 22.2 °F 29.89 in West 4.0 mph 11.0 mph 81% 0.00 in
17:40 27.2 °F 22.4 °F 29.89 in NW 6.0 mph 11.0 mph 82% 0.00 in
17:50 27.1 °F 22.3 °F 29.90 in West 5.0 mph 9.0 mph 82% 0.00 in
17:55 27.0 °F 22.5 °F 29.90 in West 6.0 mph 16.0 mph 83% 0.00 in
18:10 27.1 °F 22.9 °F 29.89 in WSW 6.0 mph 11.0 mph 84% 0.00 in
18:15 27.1 °F 22.9 °F 29.90 in West 5.0 mph 11.0 mph 84% 0.00 in
18:24 27.2 °F 23.0 °F 29.90 in West 6.0 mph 18.0 mph 84% 0.00 in
18:30 27.2 °F 23.0 °F 29.90 in West 5.0 mph 11.0 mph 84% 0.00 in
18:34 27.2 °F 23.0 °F 29.90 in West 2.0 mph 13.0 mph 84% 0.00 in
18:39 27.2 °F 23.0 °F 29.90 in WSW 4.0 mph 12.0 mph 84% 0.00 in
18:45 27.3 °F 23.1 °F 29.90 in West 7.0 mph 8.0 mph 84% 0.00 in
19:10 27.4 °F 23.2 °F 29.90 in WSW 4.0 mph 10.0 mph 84% 0.00 in
19:20 27.6 °F 22.8 °F 29.91 in West 4.0 mph 9.0 mph 82% 0.00 in
19:25 27.8 °F 22.7 °F 29.91 in WSW 2.0 mph 8.0 mph 81% 0.00 in
19:29 27.9 °F 22.5 °F 29.91 in WSW 5.0 mph 12.0 mph 80% 0.00 in
19:34 28.1 °F 22.4 °F 29.91 in West 6.0 mph 12.0 mph 79% 0.00 in
19:39 28.2 °F 22.2 °F 29.91 in WSW 8.0 mph 9.0 mph 78% 0.00 in
20:00 28.7 °F 21.1 °F 29.91 in West 5.0 mph 15.0 mph 73% 0.00 in
20:04 28.8 °F 21.2 °F 29.91 in WSW 6.0 mph 15.0 mph 73% 0.00 in
20:15 28.8 °F 20.9 °F 29.91 in WSW 8.0 mph 19.0 mph 72% 0.00 in
20:25 28.8 °F 20.6 °F 29.91 in WSW 6.0 mph 12.0 mph 71% 0.00 in
20:30 28.9 °F 20.7 °F 29.91 in WSW 5.0 mph 13.0 mph 71% 0.00 in
20:34 28.8 °F 20.6 °F 29.91 in WSW 5.0 mph 13.0 mph 71% 0.00 in
20:39 28.8 °F 20.9 °F 29.91 in WSW 5.0 mph 9.0 mph 72% 0.00 in
20:44 28.7 °F 20.5 °F 29.91 in West 5.0 mph 10.0 mph 71% 0.00 in
20:49 28.7 °F 20.5 °F 29.91 in West 4.0 mph 7.0 mph 71% 0.00 in
20:55 28.6 °F 20.4 °F 29.91 in WSW 3.0 mph 8.0 mph 71% 0.00 in
20:59 28.6 °F 20.7 °F 29.91 in WSW 5.0 mph 6.0 mph 72% 0.00 in
21:05 28.5 °F 20.6 °F 29.91 in SW 6.0 mph 10.0 mph 72% 0.00 in
21:09 28.5 °F 20.6 °F 29.91 in WSW 5.0 mph 11.0 mph 72% 0.00 in
21:15 28.6 °F 20.7 °F 29.91 in West 4.0 mph 6.0 mph 72% 0.00 in
21:20 28.5 °F 20.6 °F 29.91 in WSW 3.0 mph 6.0 mph 72% 0.00 in
21:25 28.6 °F 20.7 °F 29.91 in WSW 3.0 mph 8.0 mph 72% 0.00 in
21:30 28.6 °F 21.0 °F 29.91 in WSW 3.0 mph 9.0 mph 73% 0.00 in
21:44 28.6 °F 21.0 °F 29.91 in WSW 4.0 mph 8.0 mph 73% 0.00 in
21:49 28.5 °F 21.3 °F 29.91 in West 2.0 mph 8.0 mph 74% 0.00 in
21:54 28.5 °F 21.3 °F 29.91 in WNW 4.0 mph 10.0 mph 74% 0.00 in
21:59 28.4 °F 21.2 °F 29.91 in West 4.0 mph 9.0 mph 74% 0.00 in
22:05 28.3 °F 21.1 °F 29.91 in WNW 1.0 mph 6.0 mph 74% 0.00 in
22:19 28.1 °F 21.2 °F 29.91 in West 4.0 mph 10.0 mph 75% 0.00 in
22:24 28.1 °F 21.2 °F 29.91 in West 5.0 mph 9.0 mph 75% 0.00 in
22:40 28.0 °F 21.1 °F 29.92 in WNW 5.0 mph 11.0 mph 75% 0.00 in
22:44 28.0 °F 21.4 °F 29.91 in WSW 5.0 mph 10.0 mph 76% 0.00 in
22:49 27.9 °F 21.3 °F 29.91 in West 4.0 mph 11.0 mph 76% 0.00 in
23:00 27.9 °F 21.3 °F 29.91 in WSW 5.0 mph 11.0 mph 76% 0.00 in
23:10 27.8 °F 21.2 °F 29.91 in West 5.0 mph 7.0 mph 76% 0.00 in
23:19 27.7 °F 21.1 °F 29.91 in WSW 4.0 mph 8.0 mph 76% 0.00 in
23:24 27.7 °F 21.1 °F 29.91 in WSW 4.0 mph 7.0 mph 76% 0.00 in
23:29 27.7 °F 21.4 °F 29.91 in SW 4.0 mph 8.0 mph 77% 0.00 in
23:35 27.6 °F 21.3 °F 29.91 in WSW 4.0 mph 8.0 mph 77% 0.00 in
23:39 27.6 °F 21.3 °F 29.91 in WSW 4.0 mph 7.0 mph 77% 0.00 in
23:44 27.6 °F 21.0 °F 29.91 in WSW 3.0 mph 7.0 mph 76% 0.00 in
23:49 27.5 °F 21.2 °F 29.91 in WSW 5.0 mph 8.0 mph 77% 0.00 in
23:54 27.4 °F 21.1 °F 29.91 in WSW 3.0 mph 8.0 mph 77% 0.00 in
Buffalo, New York, USA
Compliments of Weather Underground - 2 mb